{"data":{"norad_id":67887,"epoch":"2026-05-25T01:28:23.988864Z","epoch_age_seconds":62909,"freshness":"FRESH","line1":"1 67887U 26035J   26145.06138876  .00018698  00000+0  57975-3 0  9996","line2":"2 67887  97.2857  78.6119 0001966  95.8044 264.3423 15.33461804 15690","mean_motion":15.33461804,"eccentricity":0.0001966,"inclination_deg":97.2857,"raan_deg":78.6119,"arg_perigee_deg":95.8044,"mean_anomaly_deg":264.3423,"bstar":0.00057975,"rev_number":1569,"period_min":93.905175612708,"perigee_km":464.14772036031,"apogee_km":466.83863574632,"semimajor_km":6843.6301780533,"source":"CELESTRAK","updated_at":"2026-05-25T13:38:21.733251Z"}}